Volver al catálogo

STARLINK-35900

ActivoComunicacionesVLEO
NORAD 66886·PAYLOAD·🇺🇸 United States

Lanzado Dec 4, 2025 desde Vandenberg Space Force Base

Loading…

Próximos Pases (próximas 24 horas)

TLE

ActualizadoSource: CelesTrak SupGP

Época: Sep 14, 2026, 21:21 UTC

1 66886C 25283J   26257.89006944  .00038914  00000+0  11495-2 0  2579
2 66886  53.1586 221.8161 0001408  91.4587 190.0165 15.34376514    14

Sigue STARLINK-35900 en tiempo real con AllMySat

Download on the App Store